Location: Acequia del Cap
(41.7000°N, 0.6167°E)
Time: 00:45:57
(UTC+00:00)

Cosmos 372 Rocket - Pass Details

Date: 07 August 2020
Orbit: 738 x 768 km, 74.1° (Epoch: 22 September)

Event Time Altitude Azimuth Distance (km) Brightness Sun altitude
Exits shadow 04:08:13 10° 223° (SW) 2,253 5.8 -9.1°
Maximum altitude 04:13:04 44° 295° (WNW) 1,046 4.5 -8.3°
Drops below altitude 10° 04:18:04 10° 7° (N) 2,308 7.0 -7.5°
Sets 04:20:35 0° 14° (NNE) 3,242 8.0 -7.1°
